Aswan, Egypt

10:47 AM EET on August 20, 2017 (GMT +0200)
Aswan

Weather History for HESN - December, 2011

Change the Weather History Date:

Monday, December 12, 2011

  Actual Average Record
Temperature  
Mean Temperature 64 °F -  
Max Temperature 79 °F 72 °F 91 °F (2003)
Min Temperature 50 °F 50 °F 48 °F (2012)
Growing Degree Days 14 (Base 50)    
Moisture  
Dew Point 40 °F    
Average Humidity 38    
Maximum Humidity 78    
Minimum Humidity 16    
Precipitation  
Precipitation 0.00 in 0.00 in - ()
Sea Level Pressure  
Sea Level Pressure 30.09 in    
Wind  
Wind Speed 9 mph ()    
Max Wind Speed 14 mph    
Max Gust Speed -    
Visibility 6.0 miles    
Events      
Averages and records for this station are not official NWS values.
T = Trace of Precipitation, MM = Missing Value Source: Averaged Metar Reports

Daily Weather History Graph

Daily Weather History Graph

Search for Another Location

Airport or City:

Trip Planner

Search our weather history database for the weather conditions in past years. The results will help you decide how hot, cold, wet, or windy it might be!

Date:

Astronomy

Dec. 12, 2011 Rise Set
Actual Time 6:21 AM EET 5:02 PM EET
Civil Twilight 5:57 AM EET 5:27 PM EET
Nautical Twilight 5:28 AM EET 5:55 PM EET
Astronomical Twilight 5:01 AM EET 6:23 PM EET
Moon 6:48 PM EET (12/12) 7:41 AM EET (12/12)
Length of Visible Light 11h 30m
Length of Day
10h 40m
Full, 97% of the Moon is Illuminated
Dec 12
Full
Dec 18
Last Quarter
Dec 24
New
Jan 1
First Quarter
Jan 9
Full

Hourly Weather History & Observations

Time (EET) Temp. Dew Point Humidity Pressure Visibility Wind Dir Wind Speed Gust Speed Precip Events Conditions
12:00 AM 57.2 °F 37.4 °F 48% 30.12 in - North 9.2 mph - N/A   Clear
1:00 AM 55.4 °F 37.4 °F 51% 30.12 in - North 9.2 mph - N/A   Clear
2:00 AM 47 °F 42 °F 78% 30.25 in 6 mi WNW 2.3 mph - -  
8:00 AM 54 °F 35 °F 37% 30.16 in 6 mi North 11.5 mph - -  
8:00 AM 53.6 °F 35.6 °F 51% 30.12 in - North 11.5 mph - N/A   Clear
9:00 AM 59.0 °F 35.6 °F 42% 30.15 in - North 11.5 mph - N/A   Clear
10:00 AM 64.4 °F 37.4 °F 37% 30.15 in - North 13.8 mph - N/A   Clear
11:00 AM 68.0 °F 37.4 °F 33% 30.12 in - North 13.8 mph - N/A   Clear
12:00 PM 71.6 °F 39.2 °F 31% 30.09 in - North 11.5 mph - N/A   Clear
1:00 PM 71.6 °F 50.0 °F 46% 30.09 in - North 9.2 mph - N/A   Clear
2:00 PM 78 °F 41 °F 16% 30.03 in 6 mi North 10.4 mph - -  
2:00 PM 77.0 °F 41.0 °F 28% 30.04 in - North 10.4 mph - N/A   Clear
3:00 PM 78.8 °F 41.0 °F 26% 30.04 in - North 10.4 mph - N/A   Clear
4:00 PM 77.0 °F 41.0 °F 28% 30.04 in - North 9.2 mph - N/A   Clear
5:00 PM 75.2 °F 41.0 °F 29% 30.04 in - North 9.2 mph - N/A   Clear
6:00 PM 73.4 °F 41.0 °F 31% 30.06 in - North 9.2 mph - N/A   Clear
7:00 PM 71.6 °F 39.2 °F 31% 30.06 in - North 8.1 mph - N/A   Clear
8:00 PM 67 °F 40 °F 26% 30.06 in 6 mi North 11.5 mph - -  
8:00 PM 68.0 °F 41.0 °F 37% 30.06 in - North 11.5 mph - N/A   Clear
9:00 PM 64.4 °F 39.2 °F 40% 30.09 in - North 9.2 mph - N/A   Clear
10:00 PM 62.6 °F 39.2 °F 42% - - North 9.2 mph - N/A   Clear
11:00 PM 62.6 °F 37.4 °F 39% - - North 11.5 mph - N/A   Clear